This demonstration page uses our WeatherBlox Daily Observations layout. Learn more.

Left ArrowRight Arrow

Hourly Observations for July 12, 2018

Temp ( °F °C ) Dew Point ( °F °C ) Humidity (%) Winds ( mph kmh ) Pressure ( in mb ) Visibility ( mi km ) Precip ( " mm )
12:52 am 00:52 Clear 86 30 70 21.1 59 59 S 10 17 29.98 1015 10 16 0.00 0.00
1:52 am 01:52 Clear 85 29.4 69 20.6 59 59 SSE 15 24 29.98 1015 10 16 0.00 0.00
2:52 am 02:52 Partly Cloudy 84 28.9 70 21.1 63 63 S 7 11 29.97 1015 10 16 0.00 0.00
3:52 am 03:52 Mostly Clear 81 27.2 70 21.1 69 69 SSE 9 15 29.96 1015 10 16 0.00 0.00
4:52 am 04:52 Clear 81 27.2 70 21.1 69 69 S 7 11 29.97 1015 10 16 0.00 0.00
5:52 am 05:52 Clear 80 26.7 69 20.6 69 69 SSE 8 13 29.97 1015 10 16 0.00 0.00
6:52 am 06:52 Sunny 81 27.2 69 20.6 67 67 SSE 13 20 29.98 1015 10 16 0.00 0.00
7:52 am 07:52 Sunny 82 27.8 69 20.6 65 65 SSE 12 19 30.01 1016 10 16 0.00 0.00
8:52 am 08:52 Sunny 83 28.3 70 21.1 65 65 SSE 12 19 30.01 1016 10 16 0.00 0.00
9:52 am 09:52 Sunny 87 30.6 72 22.2 61 61 SSE 8 13 30.01 1016 10 16 0.00 0.00
10:52 am 10:52 Mostly Sunny 90 32.2 72 22.2 56 56 S 9 15 30.01 1016 10 16 0.00 0.00
11:52 am 11:52 Mostly Sunny 93 33.9 71 21.7 49 49 S 14 22 30.01 1016 10 16 0.00 0.00
12:52 pm 12:52 Mostly Sunny 94 34.4 71 21.7 48 48 S 12 19 30.00 1016 10 16 0.00 0.00
1:52 pm 13:52 Mostly Sunny 95 35 72 22.2 47 47 S 14 22 29.99 1016 10 16 0.00 0.00
2:52 pm 14:52 Partly Cloudy 96 35.6 71 21.7 44 44 S 12 19 29.98 1015 10 16 0.00 0.00
3:52 pm 15:52 Partly Cloudy 98 36.7 67 19.4 36 36 SW 15 24 29.97 1015 10 16 0.00 0.00
4:52 pm 16:52 Partly Cloudy 96 35.6 73 22.8 47 47 SSE 12 19 29.96 1015 10 16 0.00 0.00
5:52 pm 17:52 Partly Cloudy 95 35 72 22.2 47 47 SSE 16 26 29.94 1014 10 16 0.00 0.00
6:52 pm 18:52 Mostly Sunny 95 35 74 23.3 51 51 SE 14 22 29.92 1013 10 16 0.00 0.00
7:52 pm 19:52 Mostly Sunny 93 33.9 74 23.3 54 54 SE 14 22 29.91 1013 10 16 0.00 0.00
8:52 pm 20:52 Mostly Sunny 90 32.2 74 23.3 59 59 SSE 12 19 29.91 1013 10 16 0.00 0.00
9:52 pm 21:52 Mostly Clear 88 31.1 74 23.3 63 63 SSE 8 13 29.94 1014 10 16 0.00 0.00
10:52 pm 22:52 Mostly Clear 87 30.6 74 23.3 65 65 SSE 8 13 29.96 1015 10 16 0.00 0.00
11:52 pm 23:52 Mostly Clear 86 30 73 22.8 65 65 SSE 7 11 29.96 1015 10 16 0.00 0.00

Powered by AerisWeather